Ephrata, WA
on Thursday, December 13, 2012

Thursday
Previous Day Next Day
Daily Summary
 ActualAverageRecord
Temperature
Mean Temperature °F 27°F  
Max Temperature 31°F 33°F 50°F (1988)
Min Temperature 28°F 21°F -4°F (1972)
Degree Days
Heating Degree Days 35 38  
Month to date heating degree days 365 471  
Since 1 July heating degree days 1625 1890  
Moisture
Dew Point 28°F   
Average Humidity 96    
Maximum Humidity 100    
Minimum Humidity 92    
Precipitation
Precipitation 0.00 in 0.04 in 0.54 in (1977)
Month to date precipitation 0.70 0.53  
Year to date precipitation 7.65 7.14  
Wind
Wind Speed 3 mph   
Max Wind Speed 8 mph   
Max Gust Speed 9 mph   
Visibility 3 miles   
Events     

Key: T is trace of precipitation, MM is missing value
Source: NWS Daily Summary
Time(PST)TemperatureDew PointHumidity Pressure Visibility Wind DirectionWind SpeedGust SpeedPrecipitationEvents Conditions
12:29 AM 30.2°F 30.2°F 100% 29.99 in 1.2 miles NE 4.6 mph - N/A   Overcast
12:53 AM 30.0°F 28.0°F 92% 30.03 in 1.8 miles NW 5.8 mph - N/A   Overcast
1:00 AM 28.4°F 28.4°F 100% 29.99 in 3.0 miles NW 5.8 mph - N/A   Overcast
1:10 AM 30.2°F 28.4°F 93% 29.99 in 2.0 miles North 6.9 mph - N/A   Overcast
1:18 AM 30.2°F 28.4°F 93% 29.99 in 1.8 miles North 6.9 mph - N/A   Overcast
1:34 AM 30.2°F 28.4°F 93% 30.00 in 3.0 miles Calm Calm - N/A   Overcast
1:53 AM 30.0°F 28.9°F 96% 30.04 in 4.0 miles NNW 3.5 mph - N/A   Overcast
1:58 AM 30.2°F 28.4°F 93% 30.00 in 1.8 miles NW 3.5 mph - N/A   Overcast
2:34 AM 28.4°F 28.4°F 100% 30.00 in 2.5 miles NW 3.5 mph - N/A   Overcast
2:42 AM 28.4°F 28.4°F 100% 30.01 in 4.0 miles West 4.6 mph - N/A   Overcast
2:53 AM 28.9°F 28.0°F 96% 30.05 in 7.0 miles West 3.5 mph - N/A   Overcast
3:53 AM 28.0°F 27.0°F 96% 30.04 in 4.0 miles NW 5.8 mph - N/A   Overcast
4:53 AM 28.0°F 27.0°F 96% 30.05 in 4.0 miles WNW 4.6 mph - N/A   Overcast
5:42 AM 28.4°F 26.6°F 93% 30.01 in 2.5 miles NW 3.5 mph - N/A   Overcast
5:53 AM 28.9°F 28.0°F 96% 30.06 in 2.0 miles Calm Calm - N/A   Overcast
6:26 AM 28.4°F 28.4°F 100% 30.03 in 1.2 miles Calm Calm - N/A   Overcast
6:53 AM 28.9°F 27.0°F 92% 30.06 in 2.5 miles East 4.6 mph - N/A   Overcast
7:01 AM 28.4°F 26.6°F 93% 30.02 in 3.0 miles East 3.5 mph - N/A   Overcast
7:53 AM 28.0°F 27.0°F 96% 30.07 in 3.0 miles ENE 4.6 mph - N/A   Overcast
8:01 AM 28.4°F 26.6°F 93% 30.02 in 2.0 miles ENE 4.6 mph - N/A   Overcast
8:16 AM 28.4°F 26.6°F 93% 30.03 in 1.8 miles East 3.5 mph - N/A   Overcast
8:53 AM 28.9°F 28.0°F 96% 30.07 in 1.8 miles Calm Calm - N/A   Overcast
9:53 AM 28.9°F 28.0°F 96% 30.06 in 2.5 miles Calm Calm - N/A   Overcast
10:29 AM 28.4°F 28.4°F 100% 30.01 in 3.0 miles Calm Calm - N/A   Overcast
10:53 AM 28.9°F 28.0°F 96% 30.05 in 5.0 miles Calm Calm - N/A   Overcast
11:53 AM 28.9°F 27.0°F 92% 30.02 in 4.0 miles Calm Calm - N/A   Overcast
12:53 PM 30.0°F 28.0°F 92% 30.01 in 3.0 miles East 3.5 mph - N/A   Overcast
1:05 PM 30.2°F 28.4°F 93% 29.96 in 2.5 miles East 3.5 mph - N/A   Overcast
1:13 PM 30.2°F 28.4°F 93% 29.95 in 3.0 miles East 3.5 mph - N/A   Overcast
1:22 PM 30.2°F 28.4°F 93% 29.95 in 1.8 miles East 3.5 mph - N/A   Overcast
1:53 PM 30.0°F 28.9°F 96% 29.98 in 0.8 miles Calm Calm - N/A   Overcast
2:01 PM 30.2°F 28.4°F 93% 29.94 in 1.0 miles East 3.5 mph - N/A   Overcast
2:09 PM 30.2°F 28.4°F 93% 29.94 in 0.8 miles ESE 3.5 mph - N/A   Overcast
2:24 PM 30.2°F 28.4°F 93% 29.93 in 1.5 miles ESE 3.5 mph - N/A   Overcast
2:44 PM 30.2°F 28.4°F 93% 29.93 in 1.5 miles Calm Calm - N/A   Overcast
3:16 PM 30.2°F 28.4°F 93% 29.92 in 2.0 miles Calm Calm - N/A   Overcast
3:38 PM 30.2°F 28.4°F 93% 29.91 in 1.2 miles ESE 4.6 mph - N/A   Overcast
4:42 PM 30.2°F 28.4°F 93% 29.91 in 3.0 miles Calm Calm - N/A   Overcast
5:15 PM 30.2°F 28.4°F 93% 29.91 in 3.0 miles NE 3.5 mph - N/A   Overcast
5:49 PM 30.2°F 28.4°F 93% 29.90 in 2.5 miles East 4.6 mph - N/A   Overcast
5:53 PM 30.0°F 28.9°F 96% 29.94 in 2.5 miles ENE 3.5 mph - N/A   Overcast
6:08 PM 30.2°F 28.4°F 93% 29.89 in 4.0 miles Calm Calm - N/A   Overcast
6:38 PM 30.2°F 28.4°F 93% 29.88 in 5.0 miles North 3.5 mph - N/A   Overcast
6:53 PM 30.0°F 28.9°F 96% 29.92 in 4.0 miles North 3.5 mph - N/A   Overcast
7:53 PM 30.0°F 28.9°F 96% 29.91 in 5.0 miles NE 3.5 mph - N/A   Overcast
8:53 PM 30.0°F 28.9°F 96% 29.90 in 5.0 miles North 5.8 mph - N/A   Overcast
9:37 PM 30.2°F 28.4°F 93% 29.86 in 5.0 miles North 4.6 mph - N/A   Overcast
10:53 PM 30.0°F 28.9°F 96% 29.90 in 10.0 miles North 3.5 mph - N/A   Overcast
11:53 PM 30.0°F 28.0°F 92% 29.89 in 10.0 miles North 3.5 mph - N/A   Overcast
Moon Phase
Dec. 13 Dec. 20 Dec. 28 Jan. 04 Jan. 11
Sunrise:07:37 AM (PST) Moon Rise:07:49 AM (PST)12/13
Sunset:04:07 PM (PST) Moon Set:04:57 PM (PST)12/13

Copyright © 2014 The Weather Underground, Inc.